Date String (YYYY-MM-DD hh:mm:ss) UTC,Instrument flags,Ambient pressure (hPa),Sample flow (lpm),Bypass flow (lpm),Sample temperature (°C),Ambient temperature (°C),ASC tube jacket temperature (°C),LED temperature (°C),Box temperature (°C),Sample RH (%),Span deviation,Mass concentration (μg/m³),Mass concentration (μg/m³),Mass concentration (μg/m³)
DateTimeUTC,F1_M11,P_M11,Q1_M11,Q2_M11,T1_M11,T2_M11,T3_M11,T4_M11,T5_M11,U1_M11,ZSPAN_M11,X0_M11,X2_M11,X1_M11
2022-10-18 18:00:00,,0833.7,5.01,0.00,28.5,27.5,00.0,37.2,30.4,11.7,0000.0,0011.60,0003.66,0003.11
2022-10-18 18:01:00,,0833.7,4.99,0.00,28.5,27.5,00.0,37.2,30.4,11.7,0000.0,0011.47,0003.63,0003.09
2022-10-18 18:02:00,,0833.6,4.99,0.00,28.5,27.5,00.0,37.2,30.4,11.7,0000.0,0011.29,0003.65,0003.08
2022-10-18 18:03:00,,0833.7,5.01,0.00,28.6,27.5,00.0,37.3,30.4,11.9,0000.0,0011.06,0003.70,0003.09
2022-10-18 18:04:00,,0833.7,4.99,0.00,28.6,27.5,00.0,37.3,30.5,11.7,0000.0,0010.92,0003.74,0003.11
2022-10-18 18:05:00,,0833.7,5.00,0.00,28.6,27.5,00.0,37.3,30.5,11.6,0000.0,0010.98,0003.73,0003.13
2022-10-18 18:06:00,,0833.7,5.02,0.00,28.6,27.6,00.0,37.3,30.5,11.5,0000.0,0010.80,0003.69,0003.13
2022-10-18 18:07:00,,0833.7,4.99,0.00,28.6,27.6,00.0,37.3,30.5,11.6,0000.0,0010.62,0003.69,0003.14
2022-10-18 18:08:00,,0833.7,5.00,0.00,28.6,27.6,00.0,37.3,30.5,11.6,0000.0,0009.67,0003.69,0003.15
2022-10-18 18:09:00,,0833.7,5.01,0.00,28.6,27.6,00.0,37.4,30.5,11.4,0000.0,0009.15,0003.67,0003.15
2022-10-18 18:10:00,,0833.7,4.99,0.00,28.7,27.6,00.0,37.4,30.5,11.5,0000.0,0009.27,0003.66,0003.15
2022-10-18 18:11:00,,0833.7,5.02,0.00,28.7,27.6,00.0,37.4,30.5,11.6,0000.0,0009.02,0003.64,0003.15
2022-10-18 18:12:00,,0833.7,4.98,0.00,28.7,27.7,00.0,37.4,30.5,11.6,0000.0,0008.93,0003.63,0003.16
2022-10-18 18:13:00,,0833.7,5.01,0.00,28.7,27.7,00.0,37.4,30.6,11.7,0000.0,0008.88,0003.60,0003.16
2022-10-18 18:14:00,,0833.7,5.00,0.00,28.7,27.7,00.0,37.4,30.6,11.6,0000.0,0009.11,0003.53,0003.15
2022-10-18 18:15:00,,0833.6,5.00,0.00,28.8,27.7,00.0,37.5,30.6,11.6,0000.0,0009.22,0003.52,0003.15
2022-10-18 18:16:00,,0833.7,5.00,0.00,28.8,27.7,00.0,37.5,30.7,11.7,0000.0,0008.98,0003.52,0003.14
2022-10-18 18:17:00,,0833.7,4.99,0.00,28.8,27.8,00.0,37.5,30.7,11.7,0000.0,0009.04,0003.53,0003.13
2022-10-18 18:18:00,,0833.7,5.01,0.00,28.8,27.8,00.0,37.5,30.7,11.7,0000.0,0008.97,0003.51,0003.11
2022-10-18 18:19:00,,0833.6,4.99,0.00,28.8,27.8,00.0,37.5,30.7,11.6,0000.0,0008.65,0003.49,0003.09
2022-10-18 18:20:00,,0833.6,5.01,0.00,28.9,27.8,00.0,37.6,30.7,11.7,0000.0,0008.57,0003.52,0003.10
2022-10-18 18:21:00,,0833.6,4.98,0.00,28.9,27.8,00.0,37.6,30.7,11.6,0000.0,0008.17,0003.53,0003.09
2022-10-18 18:22:00,,0833.6,5.01,0.00,28.9,27.8,00.0,37.6,30.8,11.6,0000.0,0008.19,0003.52,0003.08
2022-10-18 18:23:00,,0833.6,4.99,0.00,28.9,27.9,00.0,37.6,30.8,11.6,0000.0,0008.07,0003.52,0003.04
2022-10-18 18:24:00,,0833.6,5.01,0.00,28.9,27.9,00.0,37.6,30.8,11.8,0000.0,0008.18,0003.53,0003.02
2022-10-18 18:25:00,,0833.6,4.98,0.00,29.0,27.9,00.0,37.7,30.8,11.6,0000.0,0007.91,0003.55,0003.01
2022-10-18 18:26:00,,0833.5,5.01,0.00,29.0,28.0,00.0,37.7,30.8,11.6,0000.0,0007.50,0003.57,0002.98
2022-10-18 18:27:00,,0833.6,4.99,0.00,29.0,28.0,00.0,37.7,30.8,11.6,0000.0,0007.94,0003.58,0002.97
2022-10-18 18:28:00,,0833.5,5.00,0.00,29.0,28.0,00.0,37.7,30.9,11.6,0000.0,0007.94,0003.56,0002.97
2022-10-18 18:29:00,,0833.5,4.99,0.00,29.0,28.0,00.0,37.7,30.9,11.6,0000.0,0008.24,0003.58,0002.97
2022-10-18 18:30:00,,0833.5,5.00,0.00,29.0,28.0,00.0,37.7,30.9,11.7,0000.0,0008.46,0003.60,0002.97
2022-10-18 18:31:00,,0833.5,5.01,0.00,29.1,28.0,00.0,37.8,30.9,11.7,0000.0,0008.55,0003.59,0002.95
2022-10-18 18:32:00,,0833.5,4.99,0.00,29.1,28.0,00.0,37.8,30.9,11.6,0000.0,0008.80,0003.59,0002.93
2022-10-18 18:33:00,,0833.5,5.02,0.00,29.1,28.1,00.0,37.8,30.9,11.6,0000.0,0008.52,0003.60,0002.92
2022-10-18 18:34:00,,0833.5,4.99,0.00,29.1,28.1,00.0,37.8,31.0,11.7,0000.0,0008.85,0003.61,0002.92
2022-10-18 18:35:00,,0833.4,5.01,0.00,29.1,28.1,00.0,37.8,31.0,11.5,0000.0,0009.43,0003.58,0002.92
2022-10-18 18:36:00,,0833.4,5.00,0.00,29.1,28.1,00.0,37.9,31.0,11.4,0000.0,0009.58,0003.55,0002.91
2022-10-18 18:37:00,,0833.4,5.00,0.00,29.2,28.1,00.0,37.9,31.0,11.5,0000.0,0009.63,0003.53,0002.90
2022-10-18 18:38:00,,0833.5,4.99,0.00,29.2,28.1,00.0,37.9,31.0,11.5,0000.0,0009.57,0003.50,0002.90
2022-10-18 18:39:00,,0833.5,5.02,0.00,29.2,28.2,00.0,37.9,31.0,11.5,0000.0,0010.09,0003.48,0002.89
2022-10-18 18:40:00,,0833.4,4.98,0.00,29.2,28.2,00.0,37.9,31.1,11.5,0000.0,0009.80,0003.45,0002.87
2022-10-18 18:41:00,,0833.4,5.00,0.00,29.2,28.2,00.0,37.9,31.1,11.5,0000.0,0009.57,0003.41,0002.85
2022-10-18 18:42:00,,0833.4,5.00,0.00,29.3,28.2,00.0,38.0,31.1,11.4,0000.0,0009.49,0003.38,0002.83
2022-10-18 18:43:00,,0833.5,5.00,0.00,29.3,28.2,00.0,38.0,31.1,11.5,0000.0,0009.06,0003.35,0002.83
2022-10-18 18:44:00,,0833.5,5.01,0.00,29.3,28.3,00.0,38.0,31.1,11.5,0000.0,0009.12,0003.37,0002.83
2022-10-18 18:45:00,,0833.4,4.98,0.00,29.3,28.3,00.0,38.0,31.2,11.3,0000.0,0009.19,0003.36,0002.81
2022-10-18 18:46:00,,0833.3,5.02,0.00,29.3,28.3,00.0,38.0,31.2,11.4,0000.0,0008.60,0003.36,0002.79
2022-10-18 18:47:00,,0833.3,4.99,0.00,29.4,28.3,00.0,38.1,31.2,11.4,0000.0,0008.69,0003.35,0002.78
2022-10-18 18:48:00,,0833.3,5.00,0.00,29.4,28.4,00.0,38.1,31.2,11.5,0000.0,0008.84,0003.34,0002.77
2022-10-18 18:49:00,,0833.3,5.00,0.00,29.4,28.4,00.0,38.1,31.3,11.4,0000.0,0008.80,0003.33,0002.76
2022-10-18 18:50:00,,0833.3,5.01,0.00,29.4,28.4,00.0,38.1,31.3,11.4,0000.0,0008.13,0003.32,0002.75
2022-10-18 18:51:00,,0833.2,5.01,0.00,29.4,28.4,00.0,38.1,31.3,11.4,0000.0,0008.25,0003.34,0002.74
2022-10-18 18:52:00,,0833.2,5.00,0.00,29.5,28.4,00.0,38.2,31.3,11.4,0000.0,0008.42,0003.34,0002.73
2022-10-18 18:53:00,,0833.2,5.01,0.00,29.5,28.5,00.0,38.2,31.3,11.3,0000.0,0008.36,0003.34,0002.73
2022-10-18 18:54:00,,0833.2,5.00,0.00,29.5,28.5,00.0,38.2,31.3,11.3,0000.0,0008.45,0003.36,0002.73
2022-10-18 18:55:00,,0833.2,5.01,0.00,29.5,28.5,00.0,38.2,31.4,11.2,0000.0,0008.33,0003.35,0002.74
2022-10-18 18:56:00,,0833.2,4.99,0.00,29.5,28.5,00.0,38.2,31.4,11.3,0000.0,0007.85,0003.32,0002.73
2022-10-18 18:57:00,,0833.1,5.01,0.00,29.5,28.5,00.0,38.3,31.4,11.3,0000.0,0007.64,0003.29,0002.72
2022-10-18 18:58:00,,0833.2,4.98,0.00,29.6,28.5,00.0,38.3,31.4,11.2,0000.0,0007.53,0003.30,0002.73
2022-10-18 18:59:00,,0833.2,5.01,0.00,29.6,28.5,00.0,38.3,31.4,11.2,0000.0,0008.12,0003.30,0002.74
